Location: Decatur Area Astronomy Club
(40.0275°N, 88.7810°W)
Time: 06:57:55
(UTC-06:00)

Daily predictions for brighter satellites

Satellite Brightness Start Highest point End
(mag) Time Altitude Azimuth Time Altitude Azimuth Time Altitude Azimuth
Cosmos 2056 Rocket 4.1 18:00:03 10° NNW 18:05:27 68° WSW 18:10:49 10° S
BREEZE-M R/B 4.2 18:04:53 10° NNW 18:06:55 26° NNE 18:11:03 10° E
MOS 1-B Rocket 4.0 18:02:54 10° SSE 18:09:17 77° ENE 18:15:01 10° N
Iridium 4 Rocket 4.1 18:05:18 10° NNE 18:09:21 26° E 18:13:07 10° SE
Cosmos 158 Rocket 4.1 18:04:48 10° S 18:09:28 46° ESE 18:14:08 10° NNE
CZ-4 R/B 2.9 18:07:03 10° S 18:10:55 42° W 18:14:42 10° NNW
Cosmos 1452 Rocket 3.6 18:06:24 10° N 18:11:34 53° ENE 18:16:41 10° SE
BREEZE-M DEB (TANK) 3.3 18:10:35 10° NW 18:12:28 19° NNE 18:14:30 10° ENE
ATLAS 3B R/B 4.2 18:06:31 10° WSW 18:13:02 35° NW 18:19:19 10° NNE
Cosmos 1812 2.8 18:10:15 10° N 18:14:03 53° E 18:17:50 10° SSE
SPOT 3 Rocket 3.6 18:13:23 10° SSE 18:18:31 66° ENE 18:23:41 10° N
Aureole 3 4.0 18:13:59 10° S 18:19:57 70° E 18:24:37 10° NNE
Okean 3 3.4 18:19:32 10° N 18:23:40 59° E 18:27:47 10° SSE
Cosmos 2333 Rocket 4.3 18:18:50 10° NW 18:23:47 32° WSW 18:28:41 10° SSW
Cosmos 2082 4.1 18:18:50 10° SSW 18:24:24 68° WNW 18:30:03 10° NNE
Cosmos 1674 Rocket 3.4 18:20:04 10° N 18:24:25 76° E 18:28:43 10° SSE
OAO 2 Rocket 4.1 18:21:19 10° SW 18:25:54 39° SSE 18:29:58 13° ESE
Meteor 1-18 Rocket 4.3 18:24:16 10° N 18:29:46 55° ENE 18:35:11 10° SSE
Cosmos 405 3.8 18:27:25 10° SSW 18:30:50 53° WNW 18:34:17 10° N
Cosmos 1420 Rocket 4.0 18:25:56 10° NNW 18:31:12 65° ENE 18:36:28 10° SSE
Cosmos 921 Rocket 3.7 18:27:45 10° N 18:31:54 34° ENE 18:35:59 10° SE
Cosmos 1908 Rocket 3.6 18:28:06 10° S 18:32:29 59° E 18:36:53 10° NNE
YAOGAN 1 4.4 18:30:04 10° SSW 18:34:02 35° W 18:38:01 10° NNW
Cosmos 2034 Rocket 4.2 18:31:34 10° N 18:37:44 49° ENE 18:43:51 10° SSE
Meteor 1-25 Rocket 4.1 18:32:16 10° S 18:37:47 78° E 18:43:22 10° NNE
Cosmos 1733 Rocket 4.2 18:33:58 10° SSW 18:38:07 46° W 18:42:17 10° N
Cosmos 1891 Rocket 4.5 18:32:38 10° N 18:38:47 60° E 18:44:47 10° SSE
Tiangong 2 2.4 18:36:34 10° W 18:39:32 36° SSW 18:42:17 11° SE
FREGAT/IRIS 2.6 18:37:57 10° SSE 18:40:50 52° ENE 18:43:44 10° N
EO 1 Del DPAF 3.6 18:39:53 10° N 18:43:42 69° WNW 18:47:29 10° SSW
Cosmos 1437 Rocket 3.1 18:40:42 10° SSE 18:44:32 44° E 18:48:27 10° NNE
Cosmos 44 Rocket 3.3 18:41:54 10° NNW 18:46:59 85° ENE 18:52:08 10° SSE
ARGOS Delta rocket 4.3 18:43:59 10° NNE 18:48:26 36° E 18:52:38 10° SSE
SeaSat 1 3.0 18:50:15 18° ESE 18:53:22 38° ENE 18:57:54 10° N
Gbstr 26 Del rocket 3.2 18:50:37 10° SSW 18:54:04 37° SE 18:55:12 30° E
USA 215 3.3 18:52:59 13° NE 18:58:56 61° SE 19:05:22 10° SSW
Cosmos 1975 Rocket 3.2 18:55:42 10° N 19:00:03 53° E 19:04:25 10° SSE
Envisat 3.1 18:57:12 10° SE 19:02:05 49° ENE 19:06:58 10° N
Cosmos 1939 Rocket 4.4 19:04:12 22° NE 19:04:12 22° NE 19:06:23 10° NNE
COSMOS 2455 3.5 18:58:27 10° S 19:03:40 32° ESE 19:05:36 26° ENE
Resurs 01 Rocket 2.4 19:06:03 30° ENE 19:06:03 30° ENE 19:09:48 10° N
CZ-4C R/B 3.8 19:02:25 10° NNW 19:08:21 28° NE 19:10:42 24° ENE
HJ-1C 3.4 19:05:15 10° SSE 19:08:40 87° WSW 19:12:06 10° NNW
Thor Agena Rocket 3.4 19:04:54 10° NNE 19:09:58 67° ESE 19:14:59 10° S
OE (NEXTSAT) 4.3 19:07:14 10° SW 19:10:46 71° SSE 19:11:19 57° E
BREEZE-M DEB (TANK) 3.4 19:09:39 10° SSW 19:12:34 50° SE 19:15:23 27° ENE
Cosmos 1943 4.0 19:07:55 10° N 19:12:48 29° ENE 19:13:11 29° ENE
USA 32 4.2 19:09:21 10° S 19:14:33 75° W 19:19:48 10° N
Cosmos 1269 Rocket 4.0 19:09:17 10° SSW 19:14:33 84° WNW 19:19:53 10° NNE
Cosmos 494 Rocket 4.1 19:11:17 10° S 19:16:15 47° ESE 19:19:03 24° NE
Cosmos 1110 Rocket 4.2 19:12:37 10° N 19:17:45 49° ENE 19:19:14 38° ESE
USA 186 4.1 19:27:59 16° N 19:27:59 16° N 19:28:49 10° N
ATLAS CENTAUR R/B 3.4 19:24:32 10° N 19:26:07 17° NNE 19:26:07 17° NNE
SJ-6B 3.3 19:25:12 10° S 19:28:54 57° W 19:32:42 10° NNW
Cosmos 1782 Rocket 4.3 19:26:02 10° SSW 19:30:22 54° W 19:34:43 10° N
SL-16 R/B 3.6 19:26:30 10° NW 19:31:40 37° WSW 19:36:47 10° S
USA 267 4.1 19:30:03 30° ENE 19:31:51 34° NNE 19:37:37 10° NW
Tsikada Rocket 4.1 19:25:57 10° S 19:32:21 81° W 19:38:49 10° N
CENTAUR R/B 3.5 19:27:43 10° WSW 19:33:30 45° NW 19:40:07 10° NNE
ERS-2 4.4 19:33:33 10° SSW 19:36:40 26° W 19:39:48 10° NW
Meteor 1-13 Rocket 4.1 19:39:44 10° N 19:45:17 84° W 19:49:05 21° S
Cosmos 1331 Rocket 3.8 19:44:23 10° NNW 19:49:44 83° ENE 19:50:04 78° SE
Cosmos 1603 3.6 19:44:51 10° NNW 19:50:31 81° WSW 19:52:03 50° S
Okean 2 Rocket 3.8 19:46:37 10° SSW 19:50:53 52° W 19:55:13 10° N
Spot 2 Rocket 3.5 19:52:34 65° NNE 19:52:34 65° NNE 19:56:59 10° N
Geosat 3.9 19:54:24 67° NNE 19:55:06 84° WNW 20:00:07 10° SSW
Cosmos 2263 Rocket 3.2 20:01:57 10° SSW 20:04:56 33° SSW 20:04:56 33° SSW
OAO 2 Rocket 4.4 20:05:34 10° WSW 20:08:56 36° SW 20:08:56 36° SW
SeaSat 1 4.2 20:30:03 26° SW 20:30:54 28° WSW 20:35:07 10° NW
USA 215 4.1 20:40:21 38° N 20:41:44 43° NNW 20:47:49 10° W
Resurs 01 Rocket 4.0 20:43:36 21° WNW 20:43:36 21° WNW 20:45:55 10° NW
COSMOS 2455 3.9 20:43:46 10° SW 20:48:53 41° WNW 20:48:53 41° WNW
CZ-4C R/B 3.3 20:50:20 10° NW 20:55:56 58° NW 20:55:56 58° NW
USA 267 4.5 21:17:24 36° NW 21:17:24 36° NW 21:21:00 10° NW
